Theta_e
339 347 345 342 347 348 351 345 345 347 346 345 346 347 347 346 344 345 343 343 341 344 343 343 340 341 342 340 333 335 336 340 340 338 337 336 338 338 337 334 337 337 339 335 335 336 337 337 338
341 346 341 342 349 352 350 346 349 347 344 344 343 344 346 347 346 343 342 342 339 344 343 344 343 341 341 341 338 333 337 336 340 342 340 337 336 336 336 336 337 336 336 337 338 339 338 340 340
343 341 342 345 349 353 351 349 348 345 344 344 345 344 345 346 345 344 346 344 337 341 343 342 342 341 340 341 342 339 336 338 342 341 336 336 336 337 338 338 335 335 335 340 337 335 341 341 341
345 342 342 348 352 350 349 348 345 345 343 344 344 345 346 346 345 345 344 339 336 339 341 340 339 339 340 341 342 343 342 342 341 336 338 337 339 339 336 337 338 333 334 336 334 338 341 341 342
347 342 348 350 349 347 346 345 346 343 344 345 344 345 346 346 346 346 343 338 335 337 339 339 339 339 340 342 342 342 342 342 340 336 338 340 340 340 337 331 329 327 327 327 327 336 341 339 341
347 345 349 353 350 348 344 346 342 344 344 344 343 344 346 346 345 345 344 340 336 334 335 339 343 340 343 344 341 341 340 339 338 335 337 338 341 338 333 336 330 326 326 326 325 326 336 337 342
347 345 346 350 350 349 347 343 341 344 344 343 342 343 346 346 346 345 345 342 336 334 335 338 341 340 338 335 334 336 337 338 336 337 337 339 340 337 338 337 327 327 327 327 326 328 330 341 344
346 346 347 346 350 348 346 346 344 343 344 341 341 343 345 346 345 345 345 344 341 338 337 337 339 339 337 336 335 338 338 337 338 338 338 341 339 337 337 330 328 330 333 335 332 329 333 341 340
342 345 350 348 348 347 347 346 341 342 343 342 342 342 343 345 344 344 344 344 343 342 338 337 338 337 337 336 336 338 342 341 341 340 340 341 338 336 336 329 331 332 335 335 336 338 336 341 339
344 346 347 346 346 344 346 347 341 342 342 340 340 342 343 343 343 342 342 342 343 343 343 338 338 336 336 337 337 339 342 342 342 342 341 340 336 336 335 332 330 335 338 341 342 343 344 344 344
345 346 345 345 347 344 345 346 341 342 341 339 341 343 343 343 343 341 338 338 340 342 339 337 337 336 336 338 339 340 343 339 335 338 333 335 336 332 332 330 331 336 342 345 346 346 346 347 347
348 348 340 345 345 345 346 344 341 341 341 339 338 339 342 342 342 342 340 339 339 339 339 339 338 337 336 337 338 339 341 338 340 343 335 333 331 332 333 332 333 339 341 341 345 344 345 345 345
347 345 341 347 347 346 344 342 345 346 342 340 340 340 341 341 341 341 342 340 341 341 338 338 338 339 338 337 338 337 336 339 342 341 337 332 334 337 340 341 341 343 344 345 346 344 344 344 344
344 349 348 347 344 344 344 342 344 344 341 340 340 339 340 340 340 340 341 341 340 337 337 337 338 340 338 338 337 340 341 344 344 342 339 339 339 341 343 343 344 345 344 345 347 345 345 347 345
346 346 343 343 345 345 346 348 344 344 341 341 341 340 340 340 340 338 338 336 334 334 334 337 339 339 338 336 339 343 343 342 341 341 340 342 343 341 341 342 342 344 345 346 346 346 346 343 345
344 341 342 343 346 347 348 350 347 342 342 342 341 340 341 341 341 340 338 336 335 334 332 335 338 338 336 338 340 341 337 337 337 339 342 344 343 344 340 341 344 345 345 344 345 345 347 346 342
344 346 346 344 343 347 348 346 345 341 341 341 342 341 341 341 342 341 340 336 335 337 332 335 337 337 335 338 340 334 340 339 336 342 342 344 342 341 342 342 345 344 342 345 345 346 347 343 340
329 346 347 343 344 345 348 348 342 345 342 339 339 339 341 342 341 341 341 339 336 336 336 334 336 337 336 337 334 337 339 342 339 341 340 341 342 341 343 341 344 342 345 345 343 345 346 347 343
327 338 344 343 344 345 346 346 345 342 343 344 343 341 338 339 340 341 341 341 338 336 340 336 333 335 336 335 336 337 340 342 341 342 343 339 341 341 342 343 344 343 346 344 342 344 342 349 347
321 323 326 339 342 345 346 348 346 343 342 343 344 344 341 339 340 341 341 342 341 339 341 341 338 334 335 335 336 336 338 341 343 343 343 342 338 335 341 344 346 341 344 347 346 343 340 340 347
317 321 329 335 343 343 345 345 345 344 343 343 344 345 343 340 339 340 341 341 341 340 341 342 341 339 333 333 335 335 339 342 342 341 340 343 342 340 335 340 343 344 344 343 344 345 341 337 344
316 318 321 333 341 341 342 343 341 346 345 343 344 345 345 340 340 340 341 341 341 340 341 342 341 342 338 336 334 333 336 342 341 341 341 340 341 343 343 337 336 339 344 343 344 345 345 342 340
317 320 323 332 344 337 340 341 337 346 348 345 344 343 343 340 340 341 341 342 341 341 341 342 342 342 342 338 333 335 341 342 342 342 343 341 343 343 343 342 342 339 338 343 342 344 344 341 342
319 319 316 318 331 339 336 339 333 348 347 345 343 344 341 341 340 341 342 343 342 342 342 342 342 342 342 343 341 338 338 344 341 341 341 341 342 342 341 340 343 339 338 340 340 341 342 340 339
317 315 317 318 317 318 322 331 331 332 343 344 343 342 342 342 341 342 342 343 343 343 342 342 342 343 343 342 343 343 338 342 342 341 342 340 341 343 343 342 344 342 343 345 345 339 337 339 338
317 315 316 319 317 317 325 335 333 334 334 343 344 344 343 343 341 342 342 343 343 342 342 342 342 343 343 342 342 343 340 339 342 343 342 343 343 342 342 344 345 345 343 340 343 345 340 339 338
322 318 315 313 313 316 318 323 328 329 334 338 342 344 343 344 342 341 342 343 343 343 342 343 342 343 344 342 341 342 344 341 340 342 342 344 346 346 344 345 346 345 345 343 343 345 346 340 338
321 319 320 313 319 319 317 328 330 329 332 333 335 339 342 344 344 341 341 342 343 343 343 343 343 343 344 344 342 341 342 341 341 342 342 342 344 345 345 345 345 344 344 345 346 346 346 345 344
320 319 314 313 313 318 319 319 323 328 327 332 335 337 340 342 344 343 342 341 342 343 342 342 343 343 344 345 344 341 340 340 338 341 342 340 341 343 344 344 344 345 344 346 346 346 346 346 345
320 320 316 317 318 315 316 320 322 330 327 333 336 338 338 340 342 343 344 343 342 342 342 342 343 343 345 345 346 345 342 340 338 337 340 342 342 342 342 342 343 345 345 346 347 346 346 347 346
Wind_Speed
1 5 4 3 2 4 3 6 3 2 3 2 6 7 8 12 5 3 16 21 25 22 22 20 19 18 16 17 17 18 18 16 14 13 11 11 12 11 11 11 10 11 11 13 14 14 14 14 15
2 4 3 1 4 3 3 7 4 0 10 15 14 9 6 3 3 14 25 19 22 21 22 20 18 18 17 17 17 17 16 13 11 10 9 10 11 10 12 12 12 12 13 14 14 15 15 15 16
7 5 4 3 3 1 3 10 6 7 11 2 5 10 4 3 9 23 15 19 23 21 21 20 19 19 17 16 17 16 14 12 10 9 10 10 12 12 12 12 13 13 15 15 15 16 16 16 15
4 5 5 4 4 3 3 5 3 7 4 7 12 7 7 3 20 13 17 19 21 20 19 19 18 18 17 17 17 16 14 12 11 10 11 13 13 12 12 13 13 14 15 14 15 17 18 17 14
6 5 3 4 3 5 7 11 12 4 5 6 2 4 4 9 7 16 16 18 19 20 19 19 18 18 17 17 16 15 14 13 12 12 12 13 13 13 13 14 14 15 15 15 14 17 17 13 12
4 3 3 2 4 4 5 5 7 1 6 7 9 6 3 10 13 20 16 18 18 17 18 18 17 17 17 16 16 15 15 14 12 12 14 14 14 14 14 14 14 15 16 16 14 14 15 14 10
3 2 1 1 3 5 2 7 2 3 9 4 14 4 8 15 18 17 18 15 18 18 18 16 17 18 17 16 14 15 14 12 13 13 14 14 15 14 14 14 16 16 16 16 15 14 15 14 9
2 2 4 4 4 4 4 6 12 9 4 17 12 6 7 20 18 16 16 15 19 17 17 19 18 17 16 14 13 13 13 12 13 15 13 14 15 14 13 15 16 16 16 15 14 14 14 13 11
5 3 3 3 1 4 8 2 11 4 18 3 3 11 19 22 19 17 19 18 19 18 19 19 17 17 15 14 13 13 12 14 16 16 15 15 15 15 14 15 14 15 15 15 14 14 13 11 12
3 2 5 6 4 5 2 5 8 5 12 5 12 14 25 23 20 21 21 20 20 21 23 21 18 17 15 14 13 14 15 17 18 16 17 16 15 15 14 14 15 16 14 14 14 10 8 7 6
7 6 4 7 9 11 5 2 4 19 2 17 25 28 27 25 23 22 18 17 18 19 22 23 21 20 15 13 13 14 17 19 18 16 16 17 17 15 15 15 16 15 12 11 9 6 5 4 1
6 7 6 2 12 10 6 3 7 13 7 24 25 27 27 26 25 24 20 17 18 18 18 20 23 22 19 15 13 15 19 20 16 15 15 16 17 16 15 15 15 13 8 3 2 5 6 4 2
5 8 8 3 12 5 6 9 6 9 8 25 26 25 26 24 24 21 19 18 17 17 17 15 17 19 19 19 18 16 20 21 16 14 13 16 15 15 14 12 11 9 5 3 3 5 5 4 1
11 11 4 3 13 9 4 3 4 4 18 29 30 27 26 25 26 22 23 21 20 17 16 12 17 17 19 21 20 20 21 17 13 12 13 14 12 10 9 7 9 6 5 2 2 4 2 3 2
9 4 1 5 14 6 7 5 8 11 31 31 31 28 28 26 27 25 23 22 18 16 14 14 18 20 21 22 21 23 18 15 13 13 15 13 9 11 8 8 6 3 2 4 2 1 5 5 5
3 4 3 5 7 4 11 6 7 19 32 27 29 31 30 29 28 26 24 23 19 17 17 17 19 20 24 24 24 21 17 13 13 12 9 8 10 9 7 6 4 4 4 3 2 2 1 5 1
3 3 1 4 8 4 11 4 6 26 26 25 28 31 32 31 30 28 27 26 22 18 17 16 18 23 25 23 24 22 17 16 18 17 12 13 12 10 6 6 6 5 5 4 3 5 3 1 1
5 1 3 5 4 5 9 6 3 22 24 28 28 28 31 33 35 30 30 28 25 22 19 18 19 25 24 23 27 22 17 16 19 17 14 10 13 11 7 4 10 8 6 5 5 2 2 1 1
2 3 5 5 6 6 12 10 9 18 22 20 24 27 28 35 35 31 30 30 29 27 23 22 23 24 26 29 28 23 20 18 19 18 13 13 14 14 13 8 8 9 5 4 5 3 2 2 1
5 6 8 8 5 5 4 16 5 12 21 27 25 27 27 32 35 37 35 34 32 30 27 25 24 26 26 28 29 24 21 19 18 13 15 11 14 14 16 11 7 10 8 5 2 3 4 2 1
6 5 6 11 1 5 2 6 6 8 16 22 25 26 29 35 37 39 37 38 34 34 32 29 27 26 29 29 28 24 24 20 19 18 16 15 13 9 14 15 11 9 10 9 4 6 5 4 1
6 10 15 11 4 5 11 5 6 3 7 10 23 29 30 37 41 40 39 40 37 34 33 31 28 27 27 27 28 29 27 24 24 19 15 15 14 12 11 15 16 14 14 12 9 11 9 7 6
12 8 10 9 9 3 2 3 7 2 6 14 14 24 32 39 43 44 41 39 35 34 32 34 30 28 28 26 27 26 27 24 24 21 17 17 16 16 14 17 17 17 18 16 14 14 15 13 11
12 4 7 5 4 1 9 6 6 5 9 11 19 27 34 37 43 45 44 40 37 36 35 35 31 29 29 30 28 27 31 27 24 23 21 19 17 18 16 16 16 16 18 20 19 21 20 17 15
4 6 3 3 2 6 2 5 9 8 10 18 20 28 33 39 43 40 44 45 42 40 39 38 34 31 30 31 31 27 29 29 28 23 21 22 21 20 17 18 17 16 18 18 19 19 21 22 18
7 9 6 7 4 6 0 5 7 7 11 17 24 27 36 37 40 45 47 46 45 42 41 38 36 33 30 31 33 31 28 33 30 26 24 22 23 21 19 20 20 18 17 17 17 16 17 18 19
3 3 4 7 3 2 4 7 10 7 6 9 17 21 30 32 37 44 47 46 47 45 42 40 38 35 32 30 31 32 30 32 34 30 28 25 22 22 22 22 23 23 22 20 19 19 17 16 19
6 7 2 3 4 4 5 5 5 7 10 9 7 20 30 36 41 42 46 47 48 48 43 41 39 37 31 29 30 32 32 32 34 32 31 30 28 25 23 23 23 24 26 24 22 24 22 20 19
1 2 5 5 5 6 3 6 8 10 10 11 11 25 35 40 43 44 47 45 46 49 43 43 42 40 39 33 29 29 32 31 33 31 30 32 33 31 28 26 25 23 21 23 26 27 25 24 20
3 8 7 5 5 3 3 7 3 8 10 12 16 25 32 34 39 42 44 46 46 49 46 44 43 40 40 36 31 27 28 29 30 32 30 30 31 30 29 27 29 28 27 27 26 27 26 26 24
Wind_Direction
94 27 292 272 70 54 353 9 38 65 59 53 89 103 99 45 129 214 141 156 163 164 162 161 167 163 160 164 158 155 149 142 139 143 149 152 149 146 141 137 134 125 120 119 116 121 120 118 112
162 344 10 14 72 26 355 26 346 210 130 103 81 95 59 59 106 143 147 151 167 165 162 162 165 166 165 168 166 162 160 153 145 145 153 160 147 139 131 131 130 123 121 120 124 121 120 116 114
62 31 46 65 75 43 315 16 88 148 146 118 109 61 80 106 141 146 154 157 170 168 165 165 165 166 169 170 170 170 167 167 157 150 155 151 140 136 129 131 125 124 121 126 126 124 120 114 117
18 29 55 62 358 267 264 337 19 164 49 59 105 73 77 53 143 150 147 155 166 169 165 167 169 171 172 171 175 174 170 171 156 159 151 141 140 132 132 129 125 122 122 128 131 129 124 119 114
58 76 59 83 294 274 282 290 249 222 111 77 50 101 73 158 172 158 150 158 168 168 167 168 170 170 169 171 172 173 175 177 164 162 151 144 137 134 136 128 122 118 121 128 132 138 135 128 120
51 67 64 283 260 280 271 291 117 106 92 108 89 78 45 156 177 157 151 155 167 175 173 172 167 166 165 167 168 171 168 162 163 161 153 142 139 137 132 127 120 119 119 122 130 143 150 142 136
101 81 120 263 267 292 255 129 165 181 130 109 130 81 141 156 160 163 159 159 170 176 177 174 170 167 165 163 162 165 169 163 164 159 157 144 142 141 133 125 127 122 120 124 131 137 143 150 152
132 134 150 203 228 271 188 206 204 175 75 141 126 167 176 167 168 172 174 172 173 184 185 175 178 175 169 170 167 167 167 165 162 158 155 147 144 139 133 130 130 124 125 124 127 134 152 165 173
179 59 150 256 114 278 342 15 141 159 141 150 201 169 164 163 172 177 177 180 187 189 188 185 184 187 183 175 172 167 155 159 158 158 153 148 145 139 131 136 132 127 128 122 123 127 134 141 176
127 152 229 193 159 246 353 52 154 117 158 94 124 150 161 165 171 173 176 182 190 193 195 197 194 188 177 173 178 162 158 156 152 153 148 148 148 143 135 141 137 131 129 122 120 122 131 154 175
180 199 208 227 211 228 306 14 138 137 238 170 160 159 167 170 174 178 179 180 184 187 188 190 194 191 183 172 173 165 152 154 149 144 151 150 145 142 137 144 139 137 137 130 129 134 155 157 194
199 228 167 177 190 172 207 139 117 161 212 183 165 159 170 178 181 188 181 177 175 180 184 196 202 204 199 190 185 166 161 161 157 150 148 144 141 140 140 142 143 142 147 149 152 149 173 152 64
233 180 228 196 150 205 183 207 139 225 200 176 167 165 175 185 185 193 191 188 183 182 180 190 193 194 199 195 187 173 169 168 172 160 151 144 141 138 139 140 145 145 155 168 142 177 183 148 106
194 177 214 192 153 175 179 306 346 228 179 172 173 174 182 188 189 185 195 196 194 188 192 192 182 179 179 181 178 169 165 166 160 156 149 147 145 157 161 161 150 155 179 188 185 155 198 249 273
107 99 134 259 156 181 156 287 224 198 175 172 181 182 189 192 195 191 187 190 184 184 182 186 174 178 177 178 175 172 167 168 168 160 156 162 166 163 161 162 166 184 196 168 189 9 337 282 317
90 86 209 183 144 211 156 243 205 182 171 179 190 190 198 199 202 199 197 195 188 185 182 179 179 181 177 178 179 178 177 184 187 176 183 183 178 177 178 184 236 206 189 189 245 155 47 291 211
351 239 263 310 213 158 185 240 167 169 179 189 195 198 203 208 207 209 205 200 195 181 180 179 175 176 177 179 179 178 180 181 180 185 202 191 195 193 198 215 207 191 187 228 207 171 49 196 257
232 207 278 253 209 184 215 227 148 183 189 196 200 199 205 210 214 213 209 207 203 192 185 180 172 171 178 180 179 185 198 186 187 196 203 202 197 198 200 199 191 194 183 204 203 210 17 10 205
312 238 245 249 200 179 214 250 191 177 208 209 211 205 208 217 219 216 214 211 206 201 193 189 181 178 180 179 189 199 201 189 198 203 201 208 199 207 213 210 199 201 186 182 193 228 243 7 222
224 253 268 289 190 185 210 241 231 184 209 210 207 213 211 212 214 215 214 212 211 207 200 197 193 189 191 191 192 202 199 200 197 197 199 192 201 215 215 219 224 214 203 196 213 262 232 269 334
238 210 243 242 58 206 32 285 194 234 221 208 214 222 215 211 208 209 211 211 211 212 206 203 199 198 199 200 203 212 209 212 212 206 205 203 201 200 219 230 235 236 227 225 240 289 274 232 244
262 207 242 247 159 226 166 255 290 240 216 208 209 222 229 203 209 207 209 211 214 216 212 210 205 204 202 204 208 209 211 216 211 212 207 204 210 216 228 236 239 244 242 239 243 262 276 271 258
233 167 206 230 196 72 190 104 268 5 237 229 200 209 219 211 202 210 209 212 214 214 217 213 210 209 207 203 207 210 209 219 221 221 228 220 225 229 243 240 236 245 246 249 254 260 263 266 274
257 122 38 48 92 122 243 169 271 203 217 236 205 199 205 208 207 212 212 215 216 217 217 217 214 214 212 211 209 216 219 218 218 219 224 227 229 226 236 231 239 245 243 248 258 263 263 261 266
100 63 303 334 352 213 218 137 233 246 236 219 211 198 204 210 209 210 212 213 217 218 218 219 217 219 216 216 215 220 219 220 227 227 233 230 234 233 240 233 239 243 247 250 260 263 255 257 261
197 159 160 218 227 255 170 222 253 225 271 236 237 210 205 206 206 213 218 215 216 218 219 220 221 223 223 221 219 220 225 225 230 236 239 240 238 242 247 251 250 252 250 244 247 263 262 255 250
211 208 198 108 24 39 239 289 307 278 266 212 221 207 205 205 209 216 215 220 219 219 221 223 223 224 226 228 226 225 228 230 230 234 239 246 248 250 252 256 259 257 251 251 254 259 266 261 250
165 159 80 11 147 239 285 279 240 290 251 237 207 205 209 207 211 215 219 220 222 222 224 226 228 227 227 230 230 230 230 232 234 237 239 243 248 252 256 254 253 258 259 258 258 259 260 261 257
138 186 48 119 142 178 228 265 222 246 245 226 215 209 207 207 210 215 219 223 222 224 223 227 231 231 229 231 232 234 233 235 233 237 240 242 247 252 257 261 258 260 258 263 262 260 259 259 261
229 208 148 134 249 232 177 260 243 264 271 233 210 208 209 211 214 215 219 223 220 221 226 228 231 236 234 232 234 237 238 238 240 240 241 244 250 254 259 265 263 262 263 261 263 260 258 261 261